Regional Weather Roundup
Issued by NWS State College, PA

Home | Current Version | Previous Version | Graphics & Text | Print | Product List | Glossary On
Versions: 1 2 3 4 5 6 7 8 9 10 11 12 13 14 15 16 17 18 19 20 21 22 23 24 25 26 27 28 29 30 31 32 33 34 35 36 37 38 39 40 41 42 43 44 45 46 47 48 49 50
000
ASUS41 KCTP 291003
RWRCTP

REGIONAL WEATHER ROUNDUP
NATIONAL WEATHER SERVICE STATE COLLEGE PA
600 AM EDT MON MAY 29 2017

Note: "fair" indicates few or no clouds below 12,000 feet with no
significant weather and/or obstructions to visibility.

* = STATION THAT DOES NOT REPORT PRECIPITATION /E.G. RAIN...SNOW...ETC/
    THUNDER OR FOG.

PAZ002>004-007>009-013>016-020>023-029>032-291100-
WESTERN PENNSYLVANIA

CITY           SKY/WX    TMP DP  RH WIND       PRES   REMARKS
ERIE           CLOUDY    62  59  90 S12       29.73R
MEADVILLE      CLOUDY    60  60 100 SW9       29.78R
FRANKLIN*      CLOUDY    57  55  94 SW6       29.81R
NEW CASTLE     PTSUNNY   60  60 100 S5        29.80S
BEAVER COUNTY  NOT AVBL
BUTLER*        CLOUDY    61  59  94 S3        29.81R
PITTSBURGH INT MOCLDY    60  60 100 W5        29.81R
PITTSBURGH     MOCLDY    61  57  87 W8        29.82R
INDIANA*       CLOUDY    59  59 100 W5        29.84R
LATROBE        CLEAR     57  57 100 SW6       29.83R
WASHINGTON CO* MOCLDY    57  55  94 SW5       29.86R
$$

PAZ004>006-010>012-017>019-024>028-033>037-041-042-045-046-049>053-291100-
CENTRAL PENNSYLVANIA

CITY           SKY/WX    TMP DP  RH WIND       PRES   REMARKS
BRADFORD       CLOUDY    59  59 100 S6        29.80R
DUBOIS         CLOUDY    59  56  89 W9        29.80R
CLEARFIELD     LGT RAIN  60  60 100 SW6       29.80R
JOHNSTOWN      LGT RAIN  58  57  97 CALM      29.82F
ALTOONA        RAIN      63  62  97 W3        29.83R FOG
STATE COLLEGE  HVY RAIN  59  59 100 CALM      29.81S
WILLIAMSPORT   LGT RAIN  59  58  96 E15       29.79S
SELINSGROVE    CLOUDY    59  58  96 SE6       29.82R FOG
FT INDIANTOWN  CLOUDY    57  57 100 E6        29.84R
CAPITAL CITY   CLOUDY    61  58  90 E7        29.83R
HARRISBURG     DRIZZLE   60  59  96 E6        29.83R
YORK           CLOUDY    60  60 100 CALM      29.83R
$$

PAZ038>040-043-044-047-048-054-055-060>062-067>071-291100-
EASTERN PENNSYLVANIA

CITY           SKY/WX    TMP DP  RH WIND       PRES   REMARKS
SCRANTON       LGT RAIN  56  53  90 VRB3      29.83R FOG
MOUNT POCONO   LGT RAIN  50  50 100 E13       29.86R
ALLENTOWN      CLOUDY    58  53  84 E9        29.84S
QUAKERTOWN*    CLOUDY    55  55 100 E6        29.85S
READING        LGT RAIN  58  58 100 N3        29.84R
LANCASTER      CLOUDY    59  59 100 NE6       29.84R
COATESVILLE    FOG       57  57 100 E5        29.85R VSB 1
POTTSTOWN      CLOUDY    56  55  97 VRB3      29.85R
BLUE BELL      CLOUDY    55  55 100 E9        29.86R
DOYLESTOWN     CLOUDY    56  56 100 VRB6      29.84R
WILLOW GROVE   NOT AVBL
NORTH PHILA    CLOUDY    59  57  93 E9        29.85R
PHILADELPHIA   CLOUDY    59  57  93 NE9       29.83R
$$



USA.gov is the U.S. government's official web portal to all federal, state and local government web resources and services.